Weather in Nizhneangarsk

Russia / Republic of Buryatia     55°47′19″N   109°34′44″E
temp.,
°C
wind,
m/s
gust,
m/s
humid.,
%
clouds,
%
prec.,
mm/h
press.,
hPa
HPBL,
m
16 june, wed
wed1623:00+3se119761 0.2 101149
02:00+4ene229890 0.3 101162
05:00+4e1298100 0.1 101199
08:00+4se1196100 0.2 1011156
11:00+5sse438986 0.0 1011311
14:00+5s338873 0.1 1011249
17:00+4s339380 0.3 1012197
20:00+3s019791 0.6 1012109
17 june, thu
thu1723:00+3s119993 0.1 101363
02:00+3s119888 0.1 101356
05:00+4sse119772 0.1 101353
08:00+5s339171 0.1 1013121
11:00+6s558376 0.3 1012207
14:00+5ssw468696 0.4 1011201
17:00+6ssw458867 0.4 1010147
20:00+5ssw119066 0.6 101060
18 june, fri
fri1823:00+5wnw119169 0.1 100914
02:00+6nw1187100 0.1 100714
05:00+7nw1184100 0.0 100621
08:00+9s0376100 0.0 1005444
11:00+10wnw0568100 0.0 1004992
14:00+11nw156687 0.0 1003933
17:00+11nw1569100 0.0 1003783
20:00+8wnw1283100 0.0 100460
19 june, sat
sat1923:00+8n118197 0.0 100312
02:00+8w117999 0.0 100411
05:00+8w118185 0.0 100411
08:00+10e0172100 0.0 1003331
11:00+11wsw2270100 0.0 1004670
14:00+10ssw2272100 0.0 1004492
17:00+11wsw117194 0.0 1003473
20:00+10wsw1179100 0.0 100421
20 june, sun
sun2023:00+9w118351 0.0 100415
02:00+8w128565 0.1 100515
05:00+7ssw018897 0.0 100712
08:00+9sse118166 0.0 1007180
11:00+10s227583 0.1 1007391
14:00+11ssw127278 0.3 1007416
17:00+10ssw127270 0.0 1007317
20:00+10s017733 0.1 100731